Home   Weather   Minamisōma   Past weeks
Flag for Japan

Past Weather in Minamisōma, Japan — Yesterday and Last 2 Weeks

Now
41 °F

Scattered clouds.


Feels Like: 32 °F
Forecast: 47 / 28 °F
Wind: 21 mph from Northwest

Location: Sendai Airport

Current Time: Jan 21, 2020 at 2:17:22 pm

Latest Report: Jan 21, 2020 at 1:10 pm


Visibility: N/A

Pressure: 30.09 "Hg

Humidity: 57%

Dew Point: 27 °F

Location of MinamisōmaLocation

Past Weather in Minamisōma — Graph

°F

Minamisōma Temperature Yesterday

Maximum temperature yesterday: 52 °F (at 12:00 pm)
Minimum temperature yesterday: 39 °F (at 7:00 am)
Average temperature yesterday: 45 °F

High & Low Weather Summary for the Past Weeks

 TemperatureHumidityPressure
High52 °F (Jan 20, 12:00 pm)100% (Jan 8, 7:00 am)30.36 "Hg (Jan 8, 7:00 am)
Low25 °F (Jan 7, 7:00 am)34% (Jan 6, 1:00 pm)29.36 "Hg (Jan 8, 7:00 pm)
Average40 °F68%29.97 "Hg
* Reported Jan 6 1:00 pm — Jan 21 1:10 pm, Minamisōma. Weather by CustomWeather, © 2020

Note: Actual official high and low records may vary slightly from our data, if they occured in-between our weather recording intervals... More about our weather records

Minamisōma Weather History for the Previous 24 Hours

Scroll right to see more
 ConditionsComfort  
Time TempWeatherWind HumidityBarometerVisibility
1:10 pm
Tue, Jan 21
41 °FScattered clouds.21 mph57%30.09 "HgN/A
1:00 pm41 °FScattered clouds.21 mph57%30.09 "HgN/A
12:00 pm43 °FScattered clouds.25 mph49%30.07 "HgN/A
11:24 am43 °FScattered clouds.24 mph49%30.09 "HgN/A
11:00 am41 °FPassing clouds.23 mph53%30.09 "HgN/A
10:30 am41 °FPassing clouds.22 mph57%30.09 "HgN/A
10:00 am41 °FPassing clouds.21 mph57%30.07 "HgN/A
9:00 am39 °FPassing clouds.12 mph65%30.07 "HgN/A
8:00 am36 °FPassing clouds.9 mph81%30.04 "HgN/A
7:00 am34 °FSnow flurries. Broken clouds.16 mph87%30.01 "Hg4 mi
6:00 am36 °FPassing clouds.12 mph81%29.98 "HgN/A
5:30 am37 °FPassing clouds.14 mph75%29.95 "HgN/A
9:00 pm
Mon, Jan 20
39 °FPassing clouds.6 mph70%29.89 "HgN/A
8:00 pm39 °FPassing clouds.3 mph65%29.89 "HgN/A
7:00 pm39 °FPassing clouds.7 mph65%29.89 "HgN/A
6:00 pm41 °FPassing clouds.6 mph53%29.89 "HgN/A
5:00 pm45 °FPartly cloudy.8 mph46%29.89 "HgN/A
4:00 pm46 °FBroken clouds.20 mph40%29.86 "HgN/A
3:00 pm46 °FScattered clouds.21 mph43%29.86 "HgN/A
2:00 pm48 °FScattered clouds.20 mph43%29.83 "HgN/A
Weather by CustomWeather, © 2020

See weather overview

Advertising